This is the latest recevied weather packets stored in our database for station/object KJ4EWA. If no packets are shown the sender has not sent any weather packets the latest 10 day(s).
| Time | Temp. | Humidity | Pressure | Rain* | Wind** | Luminosity | Snow |
|---|---|---|---|---|---|---|---|
| 1778000329 | 25° C | 79% | 1018.2 hPa | 0 mm | - | 247 W/m² | - |
| 1778000025 | 25° C | 79% | 1018.3 hPa | 0 mm | - | 513 W/m² | - |
| 1777999721 | 25° C | 77% | 1018.3 hPa | 0 mm | - | 318 W/m² | - |
| 1777999418 | 25° C | 79% | 1018.4 hPa | 0 mm | - | 679 W/m² | - |
| 1777999116 | 25° C | 79% | 1018.3 hPa | 0 mm | - | 795 W/m² | - |
| 1777998814 | 24.44° C | 79% | 1018.4 hPa | 0 mm | - | 706 W/m² | - |
| 1777998513 | 24.44° C | 80% | 1018.5 hPa | 0 mm | - | 234 W/m² | - |
| 1777998208 | 24.44° C | 80% | 1018.4 hPa | 0 mm | - | 678 W/m² | - |
| 1777997905 | 24.44° C | 78% | 1018.7 hPa | 0 mm | - | 204 W/m² | - |
| 1777997603 | 24.44° C | 80% | 1018.6 hPa | 0 mm | - | 203 W/m² | - |
| 1777997300 | 24.44° C | 78% | 1018.6 hPa | 0 mm | - | 274 W/m² | - |
| 1777996998 | 23.89° C | 79% | 1018.7 hPa | 0 mm | - | 460 W/m² | - |
| 1777996694 | 24.44° C | 76% | 1018.8 hPa | 0 mm | - | 226 W/m² | - |
| 1777996390 | 24.44° C | 75% | 1018.8 hPa | 0 mm | - | 679 W/m² | - |
| 1777996087 | 25° C | 74% | 1018.6 hPa | 0 mm | - | 613 W/m² | - |
| 1777995783 | 23.89° C | 73% | 1018.7 hPa | 0 mm | - | 506 W/m² | - |
| 1777995479 | 25° C | 73% | 1018.5 hPa | 0 mm | - | 467 W/m² | - |
| 1777995176 | 25° C | 72% | 1018.6 hPa | 0 mm | - | 614 W/m² | - |
| 1777994874 | 24.44° C | 71% | 1018.7 hPa | 0 mm | - | 626 W/m² | - |
| 1777994569 | 23.89° C | 72% | 1018.6 hPa | 0 mm | - | 564 W/m² | - |
| 1777994264 | 24.44° C | 71% | 1018.5 hPa | 0 mm | - | 548 W/m² | - |
| 1777993962 | 24.44° C | 73% | 1018.6 hPa | 0 mm | - | 652 W/m² | - |
| 1777993658 | 23.89° C | 71% | 1018.6 hPa | 0 mm | - | 402 W/m² | - |
| 1777993356 | 23.33° C | 72% | 1018.6 hPa | 0 mm | - | 617 W/m² | - |
| 1777993050 | 23.89° C | 72% | 1018.6 hPa | 0 mm | - | 673 W/m² | - |
* Rain latest hour (hover to see other rain measurements)
** Current wind speed in m/s (hover to see current wind gust speed)